STARLINK-2381, 47800

Orbit data source: Space-Track

STARLINK-2381, 47800 is a payload satellite owned by SpaceX/Seattle (US) in LEO that was launched on Thu, 11 Mar 2021 UTC via an FALCON 9 launch vehicle from the Air Force Eastern Test Range (AFETR). Payload-class satellites include a variety of spacecraft equipped with specific instruments for various scientific and technological missions. These include communications satellites like Starlink; space stations such as the ISS; scientific satellites like the Hubble; Earth observation satellites from companies like Planet Labs, Umbra, and HawkEye 360; GPS; miniature CubeSats for education and research; and military/defense satellites.

Loading next visibility...
Identifier
47800, 2021-018P
Orbit
LEO
Country
Flag of USUS
Related business
Manufacturer
SpaceX/Seattle
Mission
Operational Commercial Communications
Bus & Motor
STARLINK, Unknown motor
Mass
260 kg wet, ~248 kg dry
Launch date (UTC)
2021-03-11 (5 years ago)
Launch vehicle
FALCON 9
Launch site
Air Force Eastern Test Range (AFETR)
Object type
Payload
Rocket body
Debris
Shape & HBR
Box + 1 Pan, 10.1 m
Radar Cross Section
13.562 m², Large (>1 m²)

Expand to show TLE details & history
Last TLE update: 2 days ago

TLE from 2 days ago
0 STARLINK-2381
1 47800U 21018P   26171.18606651  .00000064  00000-0  13846-4 0  9997
2 47800  53.1615 122.2218 0001250  77.8530 282.2611 15.31696018292463
Epoch: 2026-06-20T04:27Z
TLE epoch observation values (Epoch: 2026-06-20T04:27:56.146Z)
Latitude
-0.00006°
Longitude
146.83351°
Altitude
471.471 km
Speed
7.632 km/s
True Right ascension
08h 08m 53s
True Declination
0° 00' 00"
Sunlit
Object was in daylight at epoch
Visualization orbit readout
Latitude
Unknown
Longitude
Unknown
Altitude
Unknown
Speed
Unknown
Apparent Right ascension
Unknown
Apparent Declination
Unknown
Sunlit
N/A
Visualization observer readout
Local Sidereal Time
21:40:47
Azimuth
Unknown
Elevation
Unknown
Doppler factor
Unknown
Orbital elements
Apogee altitude
471.864 km
Perigee altitude
470.152 km
Semi-major axis
6,849.145 km
Eccentricity
0.00013
Inclination
53.1615°
RAAN
122.2218°
Arg. of periapsis
77.853°
True anomaly
282.2471°
Mean anomaly
282.2611°
Eccentric anomaly
282.2541°
Mean motion
3.82903 °/min
Orbital period
94.02 mins
BSTAR
0.000013846
Loading maneuver chart data...
Computing Atmospheric mass density...
Loading historical data...
Loading historical data...
Loading historical data...
Loading historical data...
Loading historical data...
Loading historical data...
Loading historical data...

Documentation

Showing up to 5 results
|